SCP
0 0 0 0 0 0 0 0 0 0 0 0 0 0 0 0 0 0 0 0 0 0 0 0 0 0 0 0 0 0 0 0 0 0 0 0 0 0 0 0 0 0 0
0 0 0 0 0 0 0 0 0 0 0 0 0 0 0 0 0 0 0 0 0 0 0 0 0 0 0 0 0 0 0 0 0 0 0 0 0 0 0 0 0 0 0
0 0 0 0 0 0 0 0 0 0 0 0 0 0 0 0 0 0 0 0 0 0 0 0 0 0 0 0 0 0 0 0 0 0 0 0 0 0 0 0 0 0 0
0 0 0 0 0 0 0 0 0 0 0 0 0 0 0 0 0 0 0 0 0 0 0 0 0 0 0 0 0 0 0 0 0 0 0 0 0 0 0 0 0 0 0
0 0 0 0 0 0 0 0 0 0 0 0 0 0 0 0 0 0 0 0 0 0 0 0 0 0 0 0 0 0 0 0 0 0 0 0 0 0 0 0 0 0 0
0 0 0 0 0 0 0 0 0 0 0 0 0 0 0 0 0 0 0 0 0 0 0 0 0 0 0 0 0 0 0 0 0 0 0 0 0 0 0 0 0 0 0
0 0 0 0 0 0 0 0 0 0 0 0 0 0 0 0 0 0 0 0 0 0 0 0 0 0 0 0 0 0 0 0 0 0 0 0 0 0 0 0 0 0 0
0 0 0 0 0 0 0 0 0 0 0 0 0 0 0 0 0 0 0 0 0 0 0 0 0 0 0 0 0 0 0 0 0 0 0 0 0 0 0 0 0 0 0
0 0 0 0 0 0 0 0 0 0 0 0 0 0 0 0 0 0 0 0 0 0 0 0 0 0 0 0 0 0 0 0 0 0 0 0 0 0 0 0 0 0 0
0 0 0 0 0 0 0 0 0 0 0 0 0 0 0 0 0 0 0 0 0 0 0 0 0 0 0 0 0 0 0 0 0 0 0 0 0 0 0 0 0 0 0
0 0 0 0 0 0 0 0 0 0 0 0 0 0 0 0 0 0 0 0 0 0 0 0 0 0 0 0 0 0 0 0 0 0 0 0 0 0 0 0 0 0 0
0 0 0 0 0 0 0 0 0 0 0 0 0 0 0 0 0 0 0 0 0 0 0 0 0 0 0 0 0 0 0 0 0 0 0 0 0 0 0 0 0 0 0
0 0 0 0 0 0 0 0 0 0 0 0 0 0 0 0 0 0 0 0 0 0 0 0 0 0 0 0 0 0 0 0 0 0 0 0 0 0 0 0 0 0 0
0 0 0 0 0 0 0 0 0 0 0 0 0 0 0 0 0 0 0 0 0 0 0 0 0 0 0 0 0 0 0 0 0 0 0 0 0 0 0 0 0 0 0
0 0 0 0 0 0 0 0 0 0 0 0 0 0 0 0 0 0 0 0 0 0 0 0 0 0 0 0 0 0 0 0 0 0 0 0 0 0 0 0 0 0 0
0 0 0 0 0 0 0 0 0 0 0 0 0 0 0 0 0 0 0 0 0 0 0 0 0 0 0 0 0 0 0 0 0 0 0 0 0 0 0 0 0 0 0
0 0 0 0 0 0 0 0 0 0 0 0 0 0 0 0 0 0 0 0 0 0 0 0 0 0 0 0 0 0 0 0 0 0 0 0 0 0 0 0 0 0 0
0 0 0 0 0 0 0 0 0 0 0 0 0 0 0 0 0 0 0 0 0 0 0 0 0 0 0 0 0 0 0 0 0 0 0 0 0 0 0 0 0 0 0
0 0 0 0 0 0 0 0 0 0 0 0 0 0 0 0 0 0 0 0 0 0 0 0 0 0 0 0 0 0 0 0 0 0 0 0 0 0 0 0 0 0 0
0 0 0 0 0 0 0 0 0 0 0 0 0 0 0 0 0 0 0 0 0 0 0 0 0 0 0 0 0 0 0 0 0 0 0 0 0 0 0 0 0 0 0
0 0 0 0 0 0 0 0 0 0 0 0 0 0 0 0 0 0 0 0 0 0 0 0 0 0 0 0 0 0 0 0 0 0 0 0 0 0 0 0 0 0 0
0 0 0 0 0 0 0 0 0 0 0 0 0 0 0 0 0 0 0 0 0 0 0 0 0 0 0 0 0 0 0 0 0 0 0 0 0 0 0 0 0 0 0
0 0 0 0 0 0 0 0 0 0 0 0 0 0 0 0 0 0 0 0 0 0 0 0 0 0 0 0 0 0 0 0 0 0 0 0 0 0 0 0 0 0 0
0 0 0 0 0 0 0 0 0 0 0 0 0 0 0 0 0 0 0 0 0 0 0 0 0 0 0 0 0 0 0 0 0 0 0 0 0 0 0 0 0 0 0
0 0 0 0 0 0 0 0 0 0 0 0 0 0 0 0 0 0 0 0 0 0 0 0 0 0 0 0 0 0 0 0 0 0 0 0 0 0 0 0 0 0 0
0 0 0 0 0 0 0 0 0 0 0 0 0 0 0 0 0 0 0 0 0 0 0 0 0 0 0 0 0 0 0 0 0 0 0 0 0 0 0 0 0 0 0
Wind_Speed_500mb
5 9 5 1 3 3 12 12 10 9 11 11 10 9 5 3 6 8 15 19 19 17 14 21 21 19 27 31 35 34 32 34 37 40 41 42 43 43 43 43 45 46 46
9 6 1 2 3 9 11 6 9 8 7 5 4 4 9 12 14 18 20 23 22 18 20 25 27 27 26 26 30 33 35 35 36 41 44 45 45 44 44 45 46 45 45
6 4 5 3 6 4 6 6 7 8 7 3 3 2 9 15 19 20 22 24 25 25 25 25 25 29 31 27 31 36 38 39 40 40 43 44 46 46 45 45 46 46 46
12 7 3 3 5 5 2 5 7 9 10 6 6 11 13 15 17 20 21 18 20 25 30 35 35 35 37 34 27 34 40 43 44 42 44 44 45 46 47 46 47 49 46
8 5 4 6 4 2 7 10 13 14 13 10 3 11 14 17 18 25 24 22 29 28 30 29 32 34 36 40 32 30 38 42 42 42 41 45 47 46 47 48 46 48 50
7 5 7 3 2 7 10 12 15 18 18 13 2 10 10 11 15 18 18 27 30 34 36 38 39 38 36 38 37 38 46 46 46 44 43 43 45 46 47 49 49 49 50
12 10 4 2 6 9 11 14 15 14 13 11 10 19 12 4 7 17 18 24 27 36 38 40 40 43 46 46 43 46 51 51 53 44 45 45 46 45 47 47 48 49 49
11 6 1 5 8 11 13 14 17 18 16 11 7 18 16 7 7 17 23 27 35 37 42 38 37 44 45 46 50 50 56 58 59 46 45 47 46 46 48 49 49 51 51
6 3 1 5 8 12 14 16 18 18 16 14 10 4 2 6 16 21 26 27 38 42 42 39 41 39 43 48 55 53 61 67 63 50 44 47 47 47 47 49 49 51 52
5 2 5 7 11 13 15 15 16 16 14 11 11 12 8 10 9 13 16 42 42 42 40 40 30 32 41 52 59 58 63 70 62 47 46 48 50 47 47 50 51 53 54
4 1 5 9 11 13 15 15 14 12 14 14 14 12 12 14 17 23 44 53 50 44 41 30 33 31 43 54 60 65 67 68 53 45 46 47 48 49 49 52 54 55 56
6 1 4 8 10 12 13 13 13 14 15 16 17 16 16 17 21 28 44 55 57 54 43 36 34 39 49 57 55 64 65 63 57 49 50 50 50 51 52 53 56 58 58
3 1 5 8 10 10 12 12 12 13 13 15 17 19 21 22 26 31 40 50 57 64 44 31 41 45 44 54 62 59 58 55 55 52 55 50 50 53 54 54 58 59 58
3 3 5 8 10 10 10 10 11 13 15 16 17 20 21 24 28 33 40 46 60 48 50 57 45 46 62 60 63 63 58 56 53 56 58 53 53 57 57 56 60 59 58
6 3 5 7 10 10 10 11 13 14 16 19 21 22 26 28 31 34 36 40 43 38 51 57 52 63 64 65 68 63 56 57 61 61 64 59 58 59 59 60 60 57 60
5 3 5 8 10 11 13 14 15 17 19 22 25 27 29 31 35 37 39 40 41 44 45 65 71 71 68 70 69 59 56 64 66 69 68 62 58 59 65 58 58 57 61
4 5 7 9 11 14 16 18 19 21 23 26 29 31 33 36 37 37 39 41 43 45 59 73 71 72 71 71 64 59 60 70 69 71 71 56 58 63 56 59 55 62 67
6 6 8 11 14 16 18 20 23 25 27 29 31 35 36 37 38 40 43 44 47 52 60 70 70 70 68 64 62 70 69 70 77 76 65 59 67 56 61 58 64 69 64
8 9 12 13 16 18 21 23 25 28 30 33 35 37 37 39 41 43 47 51 53 51 54 57 70 66 65 65 73 74 79 81 83 79 74 75 60 63 69 66 67 66 61
12 13 13 16 18 20 23 25 29 31 33 36 37 39 40 43 45 47 49 51 54 53 55 60 65 67 64 67 70 80 90 87 88 84 88 74 75 92 82 72 71 58 55
15 15 16 18 20 22 27 28 31 34 36 38 40 42 44 46 49 49 50 49 51 52 55 57 62 63 63 75 75 83 89 88 81 83 80 85 104 97 87 82 70 60 58
18 18 19 20 22 25 29 32 32 36 40 42 45 44 46 47 46 47 46 48 45 42 51 52 58 64 73 71 81 84 80 69 94 88 88 112 97 95 91 75 64 59 67
21 21 21 23 25 27 31 36 38 40 43 44 46 46 46 45 46 47 48 48 47 48 42 47 53 58 70 75 70 77 84 91 90 93 91 103 93 98 83 89 91 79 62
24 23 24 25 28 31 36 38 40 42 43 43 45 46 46 46 45 48 50 50 52 55 53 48 56 64 59 62 68 77 80 85 88 81 65 91 88 90 102 104 87 53 47
26 25 26 29 33 36 40 41 42 44 45 45 45 45 45 46 45 47 44 51 54 59 61 63 52 59 69 70 69 71 72 68 84 87 77 53 72 100 103 95 58 47 71
26 29 32 36 39 40 41 43 45 47 50 48 47 45 43 46 46 43 42 44 56 65 65 71 70 67 66 69 66 57 54 58 64 78 47 77 75 63 76 78 61 100 91
Wind_Direction_500mb
249 288 259 238 32 10 333 340 356 56 65 62 62 30 10 313 284 287 309 323 337 339 335 324 331 340 332 336 333 341 351 0 351 348 345 339 337 335 337 338 341 343 340
250 238 182 176 332 329 330 36 85 70 52 49 11 19 319 302 293 297 304 312 320 324 320 323 328 332 349 5 349 349 350 355 358 351 348 346 344 345 347 344 340 339 339
182 203 183 319 321 41 72 38 24 19 14 28 258 299 274 287 298 303 315 324 327 330 326 329 328 330 337 359 15 7 3 358 359 359 356 355 351 348 346 344 341 339 337
196 194 269 321 111 100 46 342 342 348 351 2 195 234 267 277 290 308 314 325 335 336 336 336 338 340 340 343 5 2 360 347 345 354 351 350 348 346 343 341 339 336 335
209 251 267 150 123 344 336 337 341 344 356 8 190 212 249 279 301 319 327 341 346 350 348 342 338 338 336 337 347 1 0 359 356 354 352 348 346 344 341 338 338 334 330
236 208 165 154 327 333 335 338 341 347 357 16 95 181 204 276 305 306 320 339 344 352 353 343 335 332 331 334 336 335 340 346 348 348 349 346 343 341 340 338 336 334 330
173 170 186 324 331 330 340 341 345 352 358 40 122 151 169 253 291 302 313 328 341 343 344 343 331 329 329 329 333 331 332 335 338 345 345 342 342 338 337 335 332 332 329
169 178 274 332 338 346 348 343 347 354 5 24 124 183 173 172 350 294 303 321 339 340 339 342 334 321 321 326 328 328 331 332 336 341 341 338 339 335 334 333 331 329 326
178 212 291 352 348 349 348 353 358 359 11 19 31 55 216 234 284 255 283 306 326 335 338 336 328 314 320 322 323 326 331 333 335 337 336 334 336 334 331 330 328 326 323
178 324 349 2 354 350 355 354 360 2 10 16 27 30 19 329 318 299 283 312 330 335 339 334 324 315 313 316 320 326 329 330 330 336 335 332 332 331 328 326 326 324 320
175 230 358 357 353 350 348 355 358 5 4 11 27 27 5 348 330 313 311 320 324 336 341 331 323 313 307 313 317 320 322 322 327 330 333 328 328 328 327 324 323 321 318
190 89 347 341 349 350 347 349 356 5 10 7 8 5 360 349 331 323 315 321 324 330 337 331 314 307 304 307 312 313 315 317 320 325 331 328 326 327 324 322 321 320 317
155 296 339 342 341 344 339 342 351 360 1 360 357 353 353 344 334 327 320 319 321 325 333 334 320 310 314 312 312 316 316 318 321 324 327 323 323 324 321 320 319 317 315
203 286 322 327 332 335 329 330 337 346 351 347 347 345 337 336 331 326 323 322 322 322 322 323 327 320 321 321 326 326 320 320 318 320 323 320 320 322 321 317 315 314 313
220 278 316 322 319 322 319 324 330 336 335 334 332 330 329 329 327 324 321 320 318 313 312 321 320 322 323 323 324 321 318 320 318 317 317 316 317 319 318 313 311 312 310
230 284 307 321 316 314 313 317 323 329 325 322 324 324 322 325 325 324 322 318 314 309 298 310 316 319 320 319 321 319 315 317 316 316 317 315 314 315 313 311 308 306 305
234 278 312 310 306 305 309 319 318 317 317 317 317 318 321 321 320 321 319 318 315 309 299 307 312 314 316 320 321 319 317 316 316 317 317 311 312 310 309 310 307 305 306
246 278 297 295 302 310 310 312 313 311 309 310 313 314 314 314 319 321 320 316 312 311 305 305 311 315 319 321 323 322 320 320 318 320 319 311 315 310 310 310 306 306 307
255 280 285 301 309 308 309 309 305 302 304 307 308 308 313 317 320 318 316 316 315 312 307 308 314 319 322 328 324 323 322 321 321 323 320 322 319 314 314 312 309 309 306
260 275 296 304 304 301 301 303 302 304 308 308 308 311 315 315 314 313 315 316 314 316 316 317 317 322 324 322 319 319 319 321 321 323 325 318 317 319 319 319 315 315 306
269 282 292 294 295 302 306 306 306 309 310 311 311 312 311 310 308 313 315 315 317 314 313 314 316 320 314 313 316 317 317 322 322 319 316 314 319 320 321 321 318 317 313
271 280 282 293 305 305 304 313 315 315 311 308 305 306 304 301 307 310 312 314 308 303 306 315 313 306 309 313 314 319 321 316 312 317 312 315 319 318 319 319 316 312 307
271 273 288 298 302 304 309 315 315 309 302 302 302 302 301 308 310 310 311 310 306 311 308 306 301 309 307 312 319 313 305 305 305 309 314 312 319 315 316 315 316 315 311
271 277 287 297 305 309 308 307 303 299 300 302 302 300 305 310 311 310 310 311 313 312 315 314 305 306 313 310 302 302 305 308 308 314 318 312 319 315 315 312 320 320 315
268 277 293 302 300 300 299 296 297 302 302 303 301 303 307 308 309 306 307 306 311 313 315 309 306 308 310 312 311 310 313 314 314 315 323 311 311 313 315 318 319 314 316
279 287 292 293 294 292 294 299 300 301 301 301 298 301 305 304 306 305 306 310 304 309 310 310 312 314 315 314 315 317 316 314 311 315 312 315 317 321 317 313 308 317 323
Wind_Speed_850mb
5 9 5 1 3 3 12 12 10 9 11 11 10 9 5 3 6 8 15 19 19 17 14 21 21 19 27 31 35 34 32 34 37 40 41 42 43 43 43 43 45 46 46
9 6 1 2 3 9 11 6 9 8 7 5 4 4 9 12 14 18 20 23 22 18 20 25 27 27 26 26 30 33 35 35 36 41 44 45 45 44 44 45 46 45 45
6 4 5 3 6 4 6 6 7 8 7 3 3 2 9 15 19 20 22 24 25 25 25 25 25 29 31 27 31 36 38 39 40 40 43 44 46 46 45 45 46 46 46
12 7 3 3 5 5 2 5 7 9 10 6 6 11 13 15 17 20 21 18 20 25 30 35 35 35 37 34 27 34 40 43 44 42 44 44 45 46 47 46 47 49 46
8 5 4 6 4 2 7 10 13 14 13 10 3 11 14 17 18 25 24 22 29 28 30 29 32 34 36 40 32 30 38 42 42 42 41 45 47 46 47 48 46 48 50
7 5 7 3 2 7 10 12 15 18 18 13 2 10 10 11 15 18 18 27 30 34 36 38 39 38 36 38 37 38 46 46 46 44 43 43 45 46 47 49 49 49 50
12 10 4 2 6 9 11 14 15 14 13 11 10 19 12 4 7 17 18 24 27 36 38 40 40 43 46 46 43 46 51 51 53 44 45 45 46 45 47 47 48 49 49
11 6 1 5 8 11 13 14 17 18 16 11 7 18 16 7 7 17 23 27 35 37 42 38 37 44 45 46 50 50 56 58 59 46 45 47 46 46 48 49 49 51 51
6 3 1 5 8 12 14 16 18 18 16 14 10 4 2 6 16 21 26 27 38 42 42 39 41 39 43 48 55 53 61 67 63 50 44 47 47 47 47 49 49 51 52
5 2 5 7 11 13 15 15 16 16 14 11 11 12 8 10 9 13 16 42 42 42 40 40 30 32 41 52 59 58 63 70 62 47 46 48 50 47 47 50 51 53 54
4 1 5 9 11 13 15 15 14 12 14 14 14 12 12 14 17 23 44 53 50 44 41 30 33 31 43 54 60 65 67 68 53 45 46 47 48 49 49 52 54 55 56
6 1 4 8 10 12 13 13 13 14 15 16 17 16 16 17 21 28 44 55 57 54 43 36 34 39 49 57 55 64 65 63 57 49 50 50 50 51 52 53 56 58 58
3 1 5 8 10 10 12 12 12 13 13 15 17 19 21 22 26 31 40 50 57 64 44 31 41 45 44 54 62 59 58 55 55 52 55 50 50 53 54 54 58 59 58
3 3 5 8 10 10 10 10 11 13 15 16 17 20 21 24 28 33 40 46 60 48 50 57 45 46 62 60 63 63 58 56 53 56 58 53 53 57 57 56 60 59 58
6 3 5 7 10 10 10 11 13 14 16 19 21 22 26 28 31 34 36 40 43 38 51 57 52 63 64 65 68 63 56 57 61 61 64 59 58 59 59 60 60 57 60
5 3 5 8 10 11 13 14 15 17 19 22 25 27 29 31 35 37 39 40 41 44 45 65 71 71 68 70 69 59 56 64 66 69 68 62 58 59 65 58 58 57 61
4 5 7 9 11 14 16 18 19 21 23 26 29 31 33 36 37 37 39 41 43 45 59 73 71 72 71 71 64 59 60 70 69 71 71 56 58 63 56 59 55 62 67
6 6 8 11 14 16 18 20 23 25 27 29 31 35 36 37 38 40 43 44 47 52 60 70 70 70 68 64 62 70 69 70 77 76 65 59 67 56 61 58 64 69 64
8 9 12 13 16 18 21 23 25 28 30 33 35 37 37 39 41 43 47 51 53 51 54 57 70 66 65 65 73 74 79 81 83 79 74 75 60 63 69 66 67 66 61
12 13 13 16 18 20 23 25 29 31 33 36 37 39 40 43 45 47 49 51 54 53 55 60 65 67 64 67 70 80 90 87 88 84 88 74 75 92 82 72 71 58 55
15 15 16 18 20 22 27 28 31 34 36 38 40 42 44 46 49 49 50 49 51 52 55 57 62 63 63 75 75 83 89 88 81 83 80 85 104 97 87 82 70 60 58
18 18 19 20 22 25 29 32 32 36 40 42 45 44 46 47 46 47 46 48 45 42 51 52 58 64 73 71 81 84 80 69 94 88 88 112 97 95 91 75 64 59 67
21 21 21 23 25 27 31 36 38 40 43 44 46 46 46 45 46 47 48 48 47 48 42 47 53 58 70 75 70 77 84 91 90 93 91 103 93 98 83 89 91 79 62
24 23 24 25 28 31 36 38 40 42 43 43 45 46 46 46 45 48 50 50 52 55 53 48 56 64 59 62 68 77 80 85 88 81 65 91 88 90 102 104 87 53 47
26 25 26 29 33 36 40 41 42 44 45 45 45 45 45 46 45 47 44 51 54 59 61 63 52 59 69 70 69 71 72 68 84 87 77 53 72 100 103 95 58 47 71
26 29 32 36 39 40 41 43 45 47 50 48 47 45 43 46 46 43 42 44 56 65 65 71 70 67 66 69 66 57 54 58 64 78 47 77 75 63 76 78 61 100 91
Wind_Direction_850mb
249 288 259 238 32 10 333 340 356 56 65 62 62 30 10 313 284 287 309 323 337 339 335 324 331 340 332 336 333 341 351 0 351 348 345 339 337 335 337 338 341 343 340
250 238 182 176 332 329 330 36 85 70 52 49 11 19 319 302 293 297 304 312 320 324 320 323 328 332 349 5 349 349 350 355 358 351 348 346 344 345 347 344 340 339 339
182 203 183 319 321 41 72 38 24 19 14 28 258 299 274 287 298 303 315 324 327 330 326 329 328 330 337 359 15 7 3 358 359 359 356 355 351 348 346 344 341 339 337
196 194 269 321 111 100 46 342 342 348 351 2 195 234 267 277 290 308 314 325 335 336 336 336 338 340 340 343 5 2 360 347 345 354 351 350 348 346 343 341 339 336 335
209 251 267 150 123 344 336 337 341 344 356 8 190 212 249 279 301 319 327 341 346 350 348 342 338 338 336 337 347 1 0 359 356 354 352 348 346 344 341 338 338 334 330
236 208 165 154 327 333 335 338 341 347 357 16 95 181 204 276 305 306 320 339 344 352 353 343 335 332 331 334 336 335 340 346 348 348 349 346 343 341 340 338 336 334 330
173 170 186 324 331 330 340 341 345 352 358 40 122 151 169 253 291 302 313 328 341 343 344 343 331 329 329 329 333 331 332 335 338 345 345 342 342 338 337 335 332 332 329
169 178 274 332 338 346 348 343 347 354 5 24 124 183 173 172 350 294 303 321 339 340 339 342 334 321 321 326 328 328 331 332 336 341 341 338 339 335 334 333 331 329 326
178 212 291 352 348 349 348 353 358 359 11 19 31 55 216 234 284 255 283 306 326 335 338 336 328 314 320 322 323 326 331 333 335 337 336 334 336 334 331 330 328 326 323
178 324 349 2 354 350 355 354 360 2 10 16 27 30 19 329 318 299 283 312 330 335 339 334 324 315 313 316 320 326 329 330 330 336 335 332 332 331 328 326 326 324 320
175 230 358 357 353 350 348 355 358 5 4 11 27 27 5 348 330 313 311 320 324 336 341 331 323 313 307 313 317 320 322 322 327 330 333 328 328 328 327 324 323 321 318
190 89 347 341 349 350 347 349 356 5 10 7 8 5 360 349 331 323 315 321 324 330 337 331 314 307 304 307 312 313 315 317 320 325 331 328 326 327 324 322 321 320 317
155 296 339 342 341 344 339 342 351 360 1 360 357 353 353 344 334 327 320 319 321 325 333 334 320 310 314 312 312 316 316 318 321 324 327 323 323 324 321 320 319 317 315
203 286 322 327 332 335 329 330 337 346 351 347 347 345 337 336 331 326 323 322 322 322 322 323 327 320 321 321 326 326 320 320 318 320 323 320 320 322 321 317 315 314 313
220 278 316 322 319 322 319 324 330 336 335 334 332 330 329 329 327 324 321 320 318 313 312 321 320 322 323 323 324 321 318 320 318 317 317 316 317 319 318 313 311 312 310
230 284 307 321 316 314 313 317 323 329 325 322 324 324 322 325 325 324 322 318 314 309 298 310 316 319 320 319 321 319 315 317 316 316 317 315 314 315 313 311 308 306 305
234 278 312 310 306 305 309 319 318 317 317 317 317 318 321 321 320 321 319 318 315 309 299 307 312 314 316 320 321 319 317 316 316 317 317 311 312 310 309 310 307 305 306
246 278 297 295 302 310 310 312 313 311 309 310 313 314 314 314 319 321 320 316 312 311 305 305 311 315 319 321 323 322 320 320 318 320 319 311 315 310 310 310 306 306 307
255 280 285 301 309 308 309 309 305 302 304 307 308 308 313 317 320 318 316 316 315 312 307 308 314 319 322 328 324 323 322 321 321 323 320 322 319 314 314 312 309 309 306
260 275 296 304 304 301 301 303 302 304 308 308 308 311 315 315 314 313 315 316 314 316 316 317 317 322 324 322 319 319 319 321 321 323 325 318 317 319 319 319 315 315 306
269 282 292 294 295 302 306 306 306 309 310 311 311 312 311 310 308 313 315 315 317 314 313 314 316 320 314 313 316 317 317 322 322 319 316 314 319 320 321 321 318 317 313
271 280 282 293 305 305 304 313 315 315 311 308 305 306 304 301 307 310 312 314 308 303 306 315 313 306 309 313 314 319 321 316 312 317 312 315 319 318 319 319 316 312 307
271 273 288 298 302 304 309 315 315 309 302 302 302 302 301 308 310 310 311 310 306 311 308 306 301 309 307 312 319 313 305 305 305 309 314 312 319 315 316 315 316 315 311
271 277 287 297 305 309 308 307 303 299 300 302 302 300 305 310 311 310 310 311 313 312 315 314 305 306 313 310 302 302 305 308 308 314 318 312 319 315 315 312 320 320 315
268 277 293 302 300 300 299 296 297 302 302 303 301 303 307 308 309 306 307 306 311 313 315 309 306 308 310 312 311 310 313 314 314 315 323 311 311 313 315 318 319 314 316
279 287 292 293 294 292 294 299 300 301 301 301 298 301 305 304 306 305 306 310 304 309 310 310 312 314 315 314 315 317 316 314 311 315 312 315 317 321 317 313 308 317 323